Weather History for Homestead AFB, FL

Change the Weather History Date:

Monday, February 25, 2013

  Actual Average Record
Temperature  
Mean Temperature 76 °F -  
Max Temperature 84 °F 76 °F 87 °F (1943)
Min Temperature 68 °F 54 °F 35 °F (1947)
Cooling Degree Days 11    
Growing Degree Days 26 (Base 50)    
Moisture  
Dew Point 70 °F    
Average Humidity 90    
Maximum Humidity 100    
Minimum Humidity 62    
Precipitation  
Precipitation 0.00 in - - ()
Sea Level Pressure  
Sea Level Pressure 29.90 in    
Wind  
Wind Speed 3 mph (SSE)    
Max Wind Speed 15 mph    
Max Gust Speed 22 mph    
Visibility 6 miles    
Events Fog , Rain    
Averages and records for this station are not official NWS values.
T = Trace of Precipitation, MM = Missing Value Source: NWS Daily Summary

Daily Weather History Graph

Daily Weather History Graph

Search for Another Location

Airport:

Trip Planner

Search our weather history database for the weather conditions in past years. The results will help you decide how hot, cold, wet, or windy it might be!

Date:

Astronomy

Feb. 25, 2013 Rise Set
Actual Time 6:47 AM EST 6:21 PM EST
Civil Twilight 6:24 AM EST 6:44 PM EST
Nautical Twilight 5:58 AM EST 7:11 PM EST
Astronomical Twilight 5:31 AM EST 7:37 PM EST
Moon 6:26 PM EST (2/25) 6:21 AM EST (2/25)
Length of Visible Light 12h 19m
Length of Day
11h 33m
Full, 100% of the Moon is Illuminated
Feb 25
Full
Feb 25
Full
Mar 4
Last Quarter
Mar 11
New
Mar 19
First Quarter

Hourly Weather History & Observations

Time (EST) Temp. Heat Index Dew Point Humidity Pressure Visibility Wind Dir Wind Speed Gust Speed Precip Events Conditions
12:03 AM 69.8 °F - 69.8 °F 100% 29.93 in 0.8 mi Calm Calm - N/A   Clear
12:08 AM 69.8 °F - 68.0 °F 94% 29.92 in 2.0 mi Calm Calm - N/A   Clear
12:13 AM 69.8 °F - 69.8 °F 100% 29.92 in 3.0 mi Calm Calm - N/A   Clear
12:18 AM 69.8 °F - 69.8 °F 100% 29.92 in 0.8 mi Calm Calm - N/A   Clear
12:23 AM 69.8 °F - 68.0 °F 94% 29.92 in 0.5 mi Calm Calm - N/A Fog Fog
12:28 AM 68.0 °F - 68.0 °F 100% 29.92 in 0.8 mi SE 1.2 mph - N/A   Clear
12:33 AM 68.0 °F - 68.0 °F 100% 29.92 in 2.0 mi SSE 1.2 mph - N/A   Clear
12:38 AM 69.8 °F - 68.0 °F 94% 29.93 in 7.0 mi SSE 1.2 mph - N/A   Clear
12:58 AM 69.8 °F - 69.8 °F 100% 29.94 in 7.0 mi Calm Calm - N/A   Clear
1:28 AM 68.0 °F - 68.0 °F 100% 29.92 in 7.0 mi Calm Calm - N/A   Partly Cloudy
1:43 AM 68.0 °F - 68.0 °F 100% 29.92 in 3.0 mi Calm Calm - N/A   Clear
1:48 AM 68.0 °F - 68.0 °F 100% 29.92 in 1.2 mi Calm Calm - N/A   Clear
1:53 AM 68.0 °F - 68.0 °F 100% 29.92 in 0.8 mi Calm Calm - N/A   Clear
1:58 AM 68.0 °F - 68.0 °F 100% 29.92 in 0.5 mi Calm Calm - N/A Fog Fog
2:03 AM 68.0 °F - 68.0 °F 100% 29.91 in 0.2 mi Calm Calm - N/A Fog Fog
2:58 AM 68.0 °F - 68.0 °F 100% 29.90 in 0.5 mi SSE 2.3 mph - N/A Fog Fog
3:58 AM 68.0 °F - 68.0 °F 100% 29.89 in 0.2 mi South 1.2 mph - N/A Fog Fog
4:23 AM 69.8 °F - 69.8 °F 100% 29.89 in 1.5 mi Calm Calm - N/A   Clear
4:28 AM 69.8 °F - 69.8 °F 100% 29.88 in 5.0 mi Calm Calm - N/A   Clear
4:33 AM 69.8 °F - 69.8 °F 100% 29.88 in 1.5 mi Calm Calm - N/A   Clear
4:38 AM 69.8 °F - 69.8 °F 100% 29.88 in 0.5 mi South 2.3 mph - N/A Fog Fog
4:53 AM 69.8 °F - 69.8 °F 100% 29.88 in 3.0 mi NNW 2.3 mph - N/A   Clear
4:58 AM 69.8 °F - 69.8 °F 100% 29.88 in 7.0 mi North 1.2 mph - N/A   Partly Cloudy
5:03 AM 69.8 °F - 69.8 °F 100% 29.88 in 10.0 mi North 1.2 mph - N/A   Partly Cloudy
5:58 AM 69.8 °F - 69.8 °F 100% 29.90 in 10.0 mi NNE 2.3 mph - N/A   Clear
6:58 AM 69.8 °F - 69.8 °F 100% 29.90 in 7.0 mi Calm Calm - N/A   Clear
7:58 AM 73.4 °F - 71.6 °F 94% 29.90 in 7.0 mi SSE 4.6 mph - N/A   Clear
8:58 AM 75.2 °F - 75.2 °F 100% 29.93 in 10.0 mi South 11.5 mph - N/A   Partly Cloudy
9:58 AM 78.8 °F - 71.6 °F 78% 29.93 in 10.0 mi South 10.4 mph - N/A   Partly Cloudy
10:58 AM 82.4 °F 87.2 °F 71.6 °F 70% 29.93 in 10.0 mi South 12.7 mph - N/A   Clear
11:58 AM 82.4 °F 86.3 °F 69.8 °F 66% 29.92 in 10.0 mi SSE 12.7 mph - N/A   Clear
12:58 PM 82.4 °F 86.3 °F 69.8 °F 66% 29.90 in 10.0 mi South 12.7 mph 21.9 mph N/A   Partly Cloudy
1:58 PM 84.2 °F 89.6 °F 71.6 °F 66% 29.87 in 10.0 mi South 11.5 mph - N/A   Clear
2:04 PM 84.2 °F 88.4 °F 69.8 °F 62% 29.86 in 10.0 mi South 13.8 mph - N/A Rain Light Rain
2:06 PM 84.2 °F 88.4 °F 69.8 °F 62% 29.86 in 10.0 mi South 15.0 mph - N/A   Clear
2:58 PM 82.4 °F 86.3 °F 69.8 °F 66% 29.87 in 10.0 mi South 11.5 mph - N/A   Partly Cloudy
3:58 PM 82.4 °F 85.4 °F 68.0 °F 62% 29.86 in 10.0 mi SSE 13.8 mph - N/A   Clear
4:58 PM 80.6 °F 83.9 °F 69.8 °F 70% 29.85 in 10.0 mi South 10.4 mph - N/A   Clear
5:58 PM 78.8 °F - 71.6 °F 78% 29.86 in 10.0 mi SSE 8.1 mph - N/A   Clear
6:58 PM 75.2 °F - 71.6 °F 89% 29.86 in 10.0 mi SE 6.9 mph - N/A   Scattered Clouds
7:58 PM 75.2 °F - 71.6 °F 89% 29.87 in 10.0 mi SE 5.8 mph - N/A   Partly Cloudy
8:58 PM 75.2 °F - 71.6 °F 89% 29.88 in 10.0 mi SE 6.9 mph - N/A   Clear
9:58 PM 75.2 °F - 71.6 °F 89% 29.88 in 10.0 mi SE 10.4 mph - N/A   Clear
10:58 PM 75.2 °F - 73.4 °F 94% 29.88 in 10.0 mi SE 8.1 mph - N/A   Clear
11:58 PM 75.2 °F - 73.4 °F 94% 29.87 in 10.0 mi SE 6.9 mph - N/A   Partly Cloudy